Flag for U.S.A. Weather past 2 weeks in Beaumont, Texas, U.S.A.

Now
79 °F

Scattered clouds.


Feels Like: 81 °F
Forecast: 66 / 82 °F
Wind: 17 mph from South

Location: Jefferson County Airport


UV Index: 0 (Low)

Visibility: 10 mi


Pressure: 29.90 "Hg

Humidity: 62%

Dew point: 65 °F

Location of BeaumontLocation

Historic Weather in Beaumont

°F

Beaumont temperature yesterday

Maximum temperature yesterday: 80 °F (at 11:53 AM)
Minimum temperature yesterday: 64 °F (at 12:03 AM)
Average temperature yesterday: 71 °F

Past Weeks' High & Low Weather Summary

 TemperatureHumidityPressure
High86 °F (Apr 22, 4:53 PM)100% (Apr 20, 6:01 AM)30.28 "Hg (Apr 20, 6:01 AM)
Low42 °F (Apr 15, 6:53 AM)27% (Apr 9, 12:53 PM)29.74 "Hg (Apr 14, 4:53 AM)
Average66 °F74%30.05 "Hg
* Reported Apr 9 10:53 AM — Apr 24 10:53 AM, Beaumont, Weather by CustomWeather, © 2014

Note: Actual official high and low records may vary slightly from our data, if they occured in-between our weather recording intervals... More about our weather records

Advertising

Historic Weather Conditions — Data for Previous 24 hours

 ConditionsComfort  
Time TempWeatherWind HumidityBarometerVisibility
10:53 AM
Apr 24
77 °FPartly sunny.14 mph69%29.92 "Hg10 mi
10:00 AM75 °FPartly sunny.14 mph74%29.92 "Hg10 mi
8:59 AM72 °FMostly cloudy.9 mph84%29.92 "Hg10 mi
7:53 AM70 °FPartly sunny.6 mph87%29.90 "Hg10 mi
6:53 AM68 °FMostly cloudy.5 mph93%29.88 "Hg9 mi
5:53 AM68 °FPassing clouds.6 mph90%29.85 "Hg10 mi
4:53 AM68 °FPassing clouds.8 mph90%29.84 "Hg9 mi
4:01 AM68 °FFog.6 mph93%29.84 "Hg6 mi
2:53 AM67 °FFog.6 mph93%29.85 "Hg5 mi
1:53 AM67 °FFog.7 mph93%29.86 "Hg6 mi
12:53 AM67 °FClear.7 mph93%29.88 "Hg7 mi
11:53 PM
Apr 23
67 °FClear.7 mph93%29.88 "Hg7 mi
10:53 PM67 °FPassing clouds.7 mph93%29.90 "Hg8 mi
9:53 PM68 °FPassing clouds.6 mph90%29.90 "Hg8 mi
8:53 PM68 °FClear.5 mph90%29.88 "Hg8 mi
7:53 PM70 °FSunny.8 mph84%29.86 "Hg10 mi
6:53 PM74 °FSunny.12 mph74%29.86 "Hg10 mi
5:53 PM77 °FPassing clouds.13 mph66%29.87 "Hg10 mi
4:53 PM79 °FScattered clouds.12 mph62%29.88 "Hg10 mi
3:53 PM78 °FPartly sunny.12 mph66%29.89 "Hg10 mi
2:53 PM80 °FMostly cloudy.14 mph62%29.92 "Hg10 mi
1:53 PM80 °FBroken clouds.13 mph62%29.93 "Hg10 mi
12:53 PM79 °FBroken clouds.12 mph69%29.96 "Hg10 mi
Weather by CustomWeather, © 2014

See weather overview